| time (UTC) | temp F | wind direction | speed MPH | gust MPH | rain 1hr in | rain 24hr in | rain mn in | humidity % | barometer mb |
| 20260502194802 | 47 | 0 | 4.0 | 4.0 | 0.00 | 0.01 | 0.01 | 59 | 1017.6 |
| 20260502194302 | 47 | 203 | 2.0 | 2.0 | 0.00 | 0.01 | 0.01 | 58 | 1017.6 |
| 20260502193803 | 48 | 23 | 2.0 | 2.0 | 0.00 | 0.01 | 0.01 | 57 | 1017.6 |
| 20260502193302 | 46 | 293 | 2.0 | 2.0 | 0.00 | 0.01 | 0.01 | 62 | 1017.6 |
| 20260502192806 | 45 | 338 | 4.0 | 5.0 | 0.00 | 0.01 | 0.01 | 61 | 1017.6 |
| 20260502192305 | 45 | 338 | 4.0 | 5.0 | 0.00 | 0.01 | 0.01 | 64 | 1017.6 |
| 20260502191803 | 46 | 0 | 2.0 | 4.0 | 0.00 | 0.01 | 0.01 | 64 | 1017.6 |
| 20260502191302 | 46 | 0 | 2.0 | 2.0 | 0.00 | 0.01 | 0.01 | 63 | 1017.6 |
| 20260502190802 | 48 | 23 | 4.0 | 4.0 | 0.00 | 0.01 | 0.01 | 62 | 1017.6 |
| 20260502190302 | 47 | 45 | 4.0 | 4.0 | 0.00 | 0.01 | 0.01 | 60 | 1017.6 |
| 20260502185803 | 46 | 293 | 4.0 | 5.0 | 0.00 | 0.01 | 0.01 | 57 | 1017.6 |
| 20260502185305 | 46 | 45 | 2.0 | 2.0 | 0.00 | 0.01 | 0.01 | 57 | 1017.6 |
| 20260502184802 | 46 | 315 | 4.0 | 4.0 | 0.00 | 0.01 | 0.01 | 57 | 1017.6 |
| 20260502184303 | 46 | 315 | 2.0 | 5.0 | 0.00 | 0.01 | 0.01 | 59 | 1017.6 |
| 20260502183802 | 46 | 0 | 5.0 | 5.0 | 0.00 | 0.01 | 0.01 | 57 | 1017.6 |
| 20260502183302 | 47 | 23 | 5.0 | 5.0 | 0.00 | 0.01 | 0.01 | 59 | 1017.6 |
| 20260502182802 | 47 | 293 | 5.0 | 5.0 | 0.00 | 0.01 | 0.01 | 53 | 1017.6 |
| 20260502182304 | 48 | 23 | 5.0 | 6.0 | 0.00 | 0.01 | 0.01 | 53 | 1017.6 |
| 20260502181802 | 48 | 315 | 3.0 | 3.0 | 0.00 | 0.01 | 0.01 | 52 | 1017.6 |
| 20260502181302 | 48 | 315 | 2.0 | 4.0 | 0.00 | 0.01 | 0.01 | 53 | 1017.9 |
| 20260502180803 | 47 | 338 | 5.0 | 5.0 | 0.00 | 0.01 | 0.01 | 56 | 1017.9 |
| 20260502180303 | 46 | 315 | 6.0 | 6.0 | 0.00 | 0.01 | 0.01 | 56 | 1017.9 |
| 20260502170303 | 46 | 270 | 2.0 | 2.0 | 0.00 | 0.01 | 0.01 | 56 | 1017.9 |
| 20260502164303 | 45 | 338 | 2.0 | 4.0 | 0.00 | 0.01 | 0.01 | 59 | 1017.9 |
| 20260502163803 | 45 | 293 | 4.0 | 4.0 | 0.00 | 0.01 | 0.01 | 58 | 1017.9 |
| 20260502163303 | 45 | 338 | 5.0 | 5.0 | 0.00 | 0.01 | 0.01 | 58 | 1017.9 |
| 20260502162802 | 46 | 293 | 4.0 | 4.0 | 0.00 | 0.01 | 0.01 | 58 | 1017.9 |
| 20260502162304 | 47 | 0 | 2.0 | 3.0 | 0.00 | 0.01 | 0.01 | 54 | 1017.9 |
| 20260502161803 | 46 | 338 | 2.0 | 5.0 | 0.00 | 0.01 | 0.01 | 56 | 1017.9 |
| 20260502161303 | 46 | 293 | 5.0 | 5.0 | 0.00 | 0.01 | 0.01 | 58 | 1017.9 |
| 20260502160803 | 47 | 270 | 4.0 | 4.0 | 0.00 | 0.01 | 0.01 | 56 | 1017.9 |
| 20260502160303 | 45 | 315 | 2.0 | 3.0 | 0.00 | 0.01 | 0.01 | 60 | 1017.9 |
| 20260502152305 | 44 | 270 | 3.0 | 3.0 | 0.00 | 0.01 | 0.01 | 61 | 1017.9 |
| 20260502151803 | 46 | 293 | 4.0 | 4.0 | 0.00 | 0.01 | 0.01 | 59 | 1017.9 |
| 20260502151303 | 46 | 338 | 6.0 | 6.0 | 0.00 | 0.01 | 0.01 | 59 | 1017.9 |
| 20260502150803 | 44 | 315 | 2.0 | 4.0 | 0.00 | 0.01 | 0.01 | 62 | 1017.9 |
| 20260502150303 | 45 | 338 | 5.0 | 5.0 | 0.00 | 0.01 | 0.01 | 61 | 1017.9 |
| 20260502130303 | 39 | 270 | 2.0 | 3.0 | 0.00 | 0.01 | 0.01 | 75 | 1017.6 |
| 20260502123804 | 38 | 293 | 2.0 | 2.0 | 0.00 | 0.01 | 0.01 | 79 | 1017.6 |
| 20260502123303 | 38 | 338 | 2.0 | 2.0 | 0.00 | 0.01 | 0.01 | 78 | 1017.6 |
| 20260502122803 | 37 | 270 | 3.0 | 3.0 | 0.00 | 0.01 | 0.01 | 77 | 1017.6 |
| 20260502122305 | 37 | 0 | 2.0 | 4.0 | 0.00 | 0.01 | 0.01 | 79 | 1017.2 |
| 20260502121803 | 37 | 293 | 2.0 | 4.0 | 0.00 | 0.01 | 0.01 | 80 | 1017.2 |
| 20260502121303 | 37 | 225 | 2.0 | 2.0 | 0.00 | 0.01 | 0.01 | 79 | 1017.2 |
| 20260502120803 | 37 | 270 | 2.0 | 4.0 | 0.00 | 0.01 | 0.01 | 78 | 1017.2 |
| 20260502120303 | 37 | 338 | 2.0 | 3.0 | 0.00 | 0.01 | 0.01 | 77 | 1017.2 |
| 20260502115803 | 37 | 338 | 2.0 | 2.0 | 0.00 | 0.01 | 0.01 | 80 | 1017.2 |
| 20260502115305 | 36 | 338 | 2.0 | 3.0 | 0.00 | 0.01 | 0.01 | 82 | 1017.2 |
| 20260502114303 | 35 | 338 | 3.0 | 3.0 | 0.00 | 0.01 | 0.01 | 87 | 1017.2 |
| 20260502113803 | 34 | 338 | 2.0 | 2.0 | 0.00 | 0.01 | 0.01 | 87 | 1017.2 |
| 20260502113303 | 34 | 293 | 2.0 | 2.0 | 0.00 | 0.01 | 0.01 | 88 | 1017.2 |
| 20260502112803 | 34 | 293 | 2.0 | 2.0 | 0.00 | 0.01 | 0.01 | 89 | 1017.2 |
| 20260502112305 | 34 | 338 | 2.0 | 2.0 | 0.00 | 0.01 | 0.01 | 90 | 1017.2 |
| 20260502111803 | 34 | 248 | 0.0 | 0.0 | 0.00 | 0.01 | 0.01 | 89 | 1017.2 |
| 20260502111303 | 34 | 315 | 0.0 | 0.0 | 0.00 | 0.01 | 0.01 | 89 | 1017.2 |
| 20260502110803 | 34 | 293 | 1.0 | 2.0 | 0.00 | 0.01 | 0.01 | 89 | 1017.2 |
| 20260502110303 | 34 | 293 | 0.0 | 0.0 | 0.00 | 0.01 | 0.01 | 88 | 1017.2 |
| 20260502105803 | 34 | 293 | 2.0 | 2.0 | 0.00 | 0.01 | 0.01 | 88 | 1017.2 |
| 20260502105306 | 34 | 293 | 2.0 | 2.0 | 0.00 | 0.01 | 0.01 | 88 | 1017.2 |
| 20260502104803 | 34 | 293 | 0.0 | 1.0 | 0.00 | 0.01 | 0.01 | 88 | 1016.9 |
| 20260502104303 | 34 | 293 | 2.0 | 2.0 | 0.00 | 0.01 | 0.01 | 88 | 1016.9 |
| 20260502103803 | 34 | 315 | 2.0 | 2.0 | 0.00 | 0.01 | 0.01 | 88 | 1016.9 |
| 20260502103303 | 34 | 270 | 2.0 | 2.0 | 0.00 | 0.01 | 0.01 | 88 | 1017.2 |
| 20260502102803 | 34 | 293 | 3.0 | 3.0 | 0.00 | 0.01 | 0.01 | 88 | 1017.2 |
| 20260502102306 | 34 | 270 | 3.0 | 3.0 | 0.00 | 0.01 | 0.01 | 88 | 1017.2 |
| 20260502101803 | 34 | 293 | 3.0 | 3.0 | 0.00 | 0.01 | 0.01 | 88 | 1017.2 |
| 20260502101303 | 34 | 293 | 2.0 | 2.0 | 0.00 | 0.01 | 0.01 | 89 | 1017.2 |
| 20260502100803 | 34 | 293 | 2.0 | 2.0 | 0.00 | 0.01 | 0.01 | 90 | 1017.2 |
| 20260502100303 | 34 | 338 | 2.0 | 2.0 | 0.00 | 0.01 | 0.01 | 90 | 1017.2 |
| 20260502091303 | 35 | 248 | 0.0 | 0.0 | 0.00 | 0.01 | 0.01 | 92 | 1017.2 |
| 20260502090803 | 35 | 270 | 0.0 | 0.0 | 0.00 | 0.01 | 0.01 | 91 | 1017.2 |
| 20260502090303 | 35 | 248 | 0.0 | 0.0 | 0.00 | 0.01 | 0.01 | 90 | 1017.2 |
| 20260502071303 | 36 | 293 | 2.0 | 2.0 | 0.00 | 0.01 | 0.01 | 97 | 1017.2 |
| 20260502070803 | 37 | 270 | 2.0 | 2.0 | 0.00 | 0.01 | 0.01 | 97 | 1017.2 |
| 20260502070303 | 37 | 248 | 1.0 | 2.0 | 0.00 | 0.01 | 0.01 | 98 | 1017.2 |
| 20260502065803 | 37 | 270 | 2.0 | 2.0 | 0.00 | 0.01 | 0.01 | 98 | 1017.2 |
| 20260502065306 | 37 | 248 | 2.0 | 2.0 | 0.00 | 0.01 | 0.01 | 98 | 1017.2 |
| 20260502064803 | 37 | 270 | 0.0 | 0.0 | 0.00 | 0.01 | 0.01 | 98 | 1017.2 |
| 20260502064303 | 37 | 248 | 2.0 | 2.0 | 0.00 | 0.01 | 0.01 | 98 | 1017.2 |
| 20260502063803 | 37 | 270 | 0.0 | 0.0 | 0.00 | 0.01 | 0.01 | 98 | 1017.2 |
| 20260502063303 | 37 | 0 | 0.0 | 1.0 | 0.00 | 0.01 | 0.01 | 98 | 1017.2 |
| 20260502062803 | 37 | 270 | 0.0 | 0.0 | 0.00 | 0.01 | 0.01 | 98 | 1017.2 |
| 20260502062306 | 37 | 293 | 0.0 | 0.0 | 0.00 | 0.01 | 0.01 | 97 | 1017.2 |
| 20260502061803 | 37 | 270 | 2.0 | 2.0 | 0.00 | 0.01 | 0.01 | 97 | 1017.2 |
| 20260502061303 | 37 | 270 | 0.0 | 0.0 | 0.00 | 0.01 | 0.01 | 97 | 1017.2 |
| 20260502060804 | 37 | 293 | 0.0 | 0.0 | 0.00 | 0.01 | 0.01 | 97 | 1017.2 |
| 20260502060303 | 37 | 270 | 0.0 | 0.0 | 0.00 | 0.01 | 0.01 | 97 | 1017.2 |
| 20260502055803 | 37 | 270 | 0.0 | 0.0 | 0.01 | 0.01 | 0.01 | 97 | 1017.2 |
| 20260502055305 | 37 | 270 | 0.0 | 0.0 | 0.01 | 0.01 | 0.01 | 97 | 1017.2 |
| 20260502054803 | 38 | 270 | 0.0 | 0.0 | 0.01 | 0.01 | 0.01 | 96 | 1017.6 |
| 20260502054304 | 38 | 338 | 0.0 | 0.0 | 0.01 | 0.01 | 0.01 | 96 | 1017.6 |
| 20260502053804 | 38 | 248 | 0.0 | 0.0 | 0.01 | 0.01 | 0.01 | 96 | 1017.6 |
| 20260502052801 | 39 | 203 | 0.0 | 0.0 | 0.01 | 0.01 | 0.01 | 97 | 1017.6 |
| 20260502052305 | 39 | 135 | 0.0 | 0.0 | 0.01 | 0.01 | 0.01 | 97 | 1017.6 |
| 20260502051801 | 39 | 203 | 0.0 | 0.0 | 0.01 | 0.01 | 0.01 | 98 | 1017.6 |
| 20260502051301 | 39 | 315 | 0.0 | 0.0 | 0.01 | 0.01 | 0.01 | 98 | 1017.6 |
| 20260502050802 | 39 | 225 | 0.0 | 0.0 | 0.01 | 0.01 | 0.01 | 98 | 1017.6 |
| 20260502050301 | 39 | 180 | 0.0 | 0.0 | 0.01 | 0.01 | 0.01 | 98 | 1017.6 |
| 20260502045801 | 39 | 270 | 0.0 | 0.0 | 0.00 | 0.00 | 0.00 | 98 | 1017.6 |
| 20260502045305 | 38 | 270 | 0.0 | 0.0 | 0.00 | 0.00 | 0.00 | 98 | 1017.6 |
| 20260502044801 | 38 | 270 | 0.0 | 0.0 | 0.00 | 0.00 | 0.00 | 97 | 1017.2 |
| 20260502044302 | 38 | 225 | 0.0 | 0.0 | 0.00 | 0.00 | 0.00 | 97 | 1017.2 |
| 20260502043802 | 38 | 225 | 0.0 | 0.0 | 0.00 | 0.00 | 0.00 | 98 | 1017.2 |
| 20260502043301 | 38 | 225 | 0.0 | 0.0 | 0.00 | 0.00 | 0.00 | 98 | 1017.2 |
| 20260502042801 | 38 | 158 | 0.0 | 0.0 | 0.00 | 0.00 | 0.00 | 98 | 1017.2 |
| 20260502042305 | 38 | 203 | 0.0 | 0.0 | 0.00 | 0.00 | 0.00 | 96 | 1017.6 |
| 20260502041801 | 38 | 113 | 0.0 | 0.0 | 0.00 | 0.00 | 0.00 | 96 | 1017.6 |
| 20260502041304 | 38 | 180 | 0.0 | 0.0 | 0.00 | 0.00 | 0.00 | 96 | 1017.6 |
| 20260502040801 | 38 | 158 | 0.0 | 0.0 | 0.00 | 0.00 | 0.00 | 95 | 1017.6 |
| 20260502040301 | 39 | 158 | 0.0 | 0.0 | 0.00 | 0.00 | 0.00 | 97 | 1017.6 |
| 20260502035802 | 39 | 180 | 0.0 | 0.0 | 0.00 | 0.19 | 0.19 | 96 | 1017.2 |
| 20260502035306 | 39 | 180 | 0.0 | 0.0 | 0.00 | 0.19 | 0.19 | 96 | 1017.2 |
| 20260502034302 | 39 | 180 | 0.0 | 0.0 | 0.00 | 0.19 | 0.19 | 94 | 1017.6 |
| 20260502033803 | 39 | 158 | 0.0 | 0.0 | 0.00 | 0.19 | 0.19 | 94 | 1017.6 |
| 20260502033302 | 40 | 113 | 0.0 | 0.0 | 0.00 | 0.19 | 0.19 | 94 | 1017.6 |
| 20260502032802 | 40 | 113 | 0.0 | 0.0 | 0.00 | 0.19 | 0.19 | 94 | 1017.6 |
| 20260502032305 | 40 | 158 | 0.0 | 0.0 | 0.00 | 0.19 | 0.19 | 94 | 1017.6 |
| 20260502031802 | 40 | 203 | 0.0 | 0.0 | 0.00 | 0.19 | 0.19 | 94 | 1017.6 |
| 20260502031302 | 40 | 225 | 0.0 | 0.0 | 0.00 | 0.19 | 0.19 | 95 | 1017.6 |
| 20260502030802 | 41 | 248 | 0.0 | 0.0 | 0.00 | 0.19 | 0.19 | 95 | 1017.6 |
| 20260502030302 | 41 | 248 | 0.0 | 0.0 | 0.00 | 0.19 | 0.19 | 95 | 1017.6 |
| 20260502025802 | 41 | 338 | 0.0 | 0.0 | 0.00 | 0.19 | 0.19 | 96 | 1017.6 |
| 20260502025306 | 41 | 113 | 0.0 | 0.0 | 0.00 | 0.19 | 0.19 | 96 | 1017.6 |
| 20260502024802 | 41 | 225 | 0.0 | 0.0 | 0.00 | 0.19 | 0.19 | 95 | 1017.6 |
| 20260502024302 | 41 | 248 | 0.0 | 0.0 | 0.00 | 0.19 | 0.19 | 95 | 1017.6 |
| 20260502023802 | 41 | 248 | 0.0 | 0.0 | 0.00 | 0.19 | 0.19 | 94 | 1017.6 |
| 20260502023302 | 41 | 225 | 0.0 | 0.0 | 0.00 | 0.19 | 0.19 | 94 | 1017.6 |
| 20260502022802 | 42 | 225 | 0.0 | 0.0 | 0.00 | 0.19 | 0.19 | 94 | 1017.6 |
| 20260502022306 | 42 | 225 | 0.0 | 0.0 | 0.00 | 0.19 | 0.19 | 94 | 1017.2 |
| 20260502021802 | 42 | 225 | 0.0 | 0.0 | 0.00 | 0.19 | 0.19 | 94 | 1017.2 |
| 20260502021302 | 42 | 203 | 0.0 | 0.0 | 0.00 | 0.19 | 0.19 | 94 | 1017.2 |
| 20260502020802 | 42 | 225 | 0.0 | 0.0 | 0.00 | 0.19 | 0.19 | 93 | 1017.2 |
| 20260502020303 | 42 | 180 | 0.0 | 0.0 | 0.01 | 0.19 | 0.19 | 93 | 1017.2 |
| 20260502015802 | 42 | 158 | 0.0 | 0.0 | 0.01 | 0.19 | 0.19 | 94 | 1016.9 |
| 20260502015305 | 42 | 90 | 0.0 | 0.0 | 0.01 | 0.19 | 0.19 | 93 | 1016.9 |
| 20260502014803 | 42 | 225 | 0.0 | 0.0 | 0.01 | 0.19 | 0.19 | 92 | 1016.9 |
| 20260502014303 | 42 | 180 | 0.0 | 0.0 | 0.01 | 0.19 | 0.19 | 91 | 1016.9 |
| 20260502013803 | 42 | 203 | 0.0 | 0.0 | 0.01 | 0.19 | 0.19 | 90 | 1016.9 |
| 20260502013302 | 42 | 203 | 0.0 | 0.0 | 0.01 | 0.19 | 0.19 | 89 | 1016.5 |
| 20260502012802 | 42 | 113 | 0.0 | 0.0 | 0.01 | 0.19 | 0.19 | 89 | 1016.5 |
| 20260502012306 | 43 | 158 | 0.0 | 0.0 | 0.01 | 0.19 | 0.19 | 88 | 1016.2 |
| 20260502011803 | 43 | 225 | 0.0 | 0.0 | 0.01 | 0.19 | 0.19 | 88 | 1016.2 |
| 20260502011302 | 43 | 203 | 0.0 | 0.0 | 0.01 | 0.19 | 0.19 | 85 | 1016.2 |
| 20260502010802 | 43 | 0 | 0.0 | 0.0 | 0.01 | 0.19 | 0.19 | 84 | 1016.2 |
| 20260502010302 | 43 | 338 | 2.0 | 3.0 | 0.00 | 0.18 | 0.18 | 82 | 1016.2 |
| 20260502005803 | 44 | 315 | 2.0 | 2.0 | 0.00 | 0.18 | 0.18 | 83 | 1016.2 |
| 20260502005305 | 44 | 293 | 1.0 | 2.0 | 0.00 | 0.18 | 0.18 | 84 | 1016.2 |
| 20260502004803 | 44 | 338 | 0.0 | 0.0 | 0.00 | 0.18 | 0.18 | 88 | 1016.2 |
| 20260502004303 | 44 | 90 | 0.0 | 0.0 | 0.00 | 0.18 | 0.18 | 87 | 1016.2 |
| 20260502003803 | 44 | 90 | 0.0 | 0.0 | 0.00 | 0.18 | 0.18 | 84 | 1016.2 |
| 20260502003303 | 45 | 90 | 0.0 | 0.0 | 0.00 | 0.18 | 0.18 | 82 | 1016.2 |
| 20260502002803 | 45 | 270 | 0.0 | 0.0 | 0.00 | 0.18 | 0.18 | 80 | 1016.2 |
| 20260502002306 | 45 | 338 | 2.0 | 2.0 | 0.00 | 0.18 | 0.18 | 78 | 1015.9 |
| 20260502001802 | 45 | 293 | 2.0 | 2.0 | 0.00 | 0.18 | 0.18 | 77 | 1015.9 |
| 20260502001303 | 45 | 293 | 2.0 | 2.0 | 0.00 | 0.18 | 0.18 | 79 | 1015.5 |
| 20260502000802 | 45 | 293 | 2.0 | 2.0 | 0.00 | 0.18 | 0.18 | 78 | 1015.5 |
| 20260502000303 | 45 | 270 | 2.0 | 2.0 | 0.00 | 0.18 | 0.18 | 77 | 1015.5 |
| 20260501235803 | 45 | 338 | 3.0 | 4.0 | 0.00 | 0.18 | 0.18 | 75 | 1015.5 |
| 20260501235305 | 46 | 293 | 0.0 | 1.0 | 0.00 | 0.18 | 0.18 | 75 | 1015.5 |
| 20260501234803 | 46 | 293 | 2.0 | 2.0 | 0.00 | 0.18 | 0.18 | 75 | 1015.2 |
| 20260501234303 | 46 | 293 | 2.0 | 2.0 | 0.00 | 0.18 | 0.18 | 75 | 1015.2 |
| 20260501233803 | 46 | 270 | 2.0 | 3.0 | 0.00 | 0.18 | 0.18 | 74 | 1015.2 |
| 20260501233303 | 46 | 315 | 2.0 | 2.0 | 0.00 | 0.18 | 0.18 | 75 | 1015.2 |
| 20260501232803 | 46 | 293 | 2.0 | 2.0 | 0.00 | 0.18 | 0.18 | 75 | 1015.2 |
| 20260501232305 | 46 | 315 | 2.0 | 2.0 | 0.00 | 0.18 | 0.18 | 73 | 1015.2 |
| 20260501231803 | 47 | 315 | 4.0 | 4.0 | 0.00 | 0.18 | 0.18 | 72 | 1015.2 |
| 20260501231303 | 47 | 338 | 3.0 | 5.0 | 0.00 | 0.18 | 0.18 | 71 | 1015.2 |
| 20260501230803 | 46 | 315 | 2.0 | 4.0 | 0.00 | 0.18 | 0.18 | 74 | 1015.2 |
| 20260501230302 | 47 | 293 | 2.0 | 2.0 | 0.00 | 0.18 | 0.18 | 72 | 1015.2 |
| 20260501225803 | 47 | 270 | 2.0 | 2.0 | 0.00 | 0.18 | 0.18 | 73 | 1015.2 |
| 20260501225305 | 49 | 0 | 2.0 | 3.0 | 0.00 | 0.18 | 0.18 | 69 | 1015.2 |
| 20260501224803 | 48 | 248 | 2.0 | 2.0 | 0.00 | 0.18 | 0.18 | 72 | 1015.2 |
| 20260501224303 | 48 | 293 | 3.0 | 3.0 | 0.00 | 0.18 | 0.18 | 73 | 1015.2 |
| 20260501223803 | 49 | 270 | 2.0 | 5.0 | 0.00 | 0.18 | 0.18 | 72 | 1015.2 |
| 20260501223303 | 49 | 248 | 3.0 | 4.0 | 0.00 | 0.18 | 0.18 | 73 | 1015.2 |
| 20260501222804 | 49 | 315 | 4.0 | 5.0 | 0.00 | 0.18 | 0.18 | 73 | 1015.2 |
| 20260501222305 | 49 | 315 | 6.0 | 6.0 | 0.00 | 0.18 | 0.18 | 72 | 1015.2 |
| 20260501221803 | 48 | 293 | 4.0 | 4.0 | 0.00 | 0.18 | 0.18 | 75 | 1015.2 |
| 20260501221303 | 48 | 293 | 3.0 | 3.0 | 0.00 | 0.18 | 0.18 | 76 | 1015.5 |
| 20260501220803 | 49 | 338 | 5.0 | 5.0 | 0.00 | 0.18 | 0.18 | 76 | 1015.5 |
| 20260501220303 | 46 | 248 | 2.0 | 4.0 | 0.00 | 0.18 | 0.18 | 81 | 1015.5 |
| 20260501215803 | 45 | 248 | 3.0 | 6.0 | 0.00 | 0.18 | 0.18 | 84 | 1015.2 |
| 20260501215305 | 45 | 315 | 4.0 | 4.0 | 0.00 | 0.18 | 0.18 | 86 | 1015.2 |
| 20260501214803 | 45 | 338 | 5.0 | 5.0 | 0.00 | 0.18 | 0.18 | 86 | 1015.2 |
| 20260501214303 | 45 | 293 | 2.0 | 4.0 | 0.00 | 0.18 | 0.18 | 87 | 1015.2 |
| 20260501213803 | 45 | 315 | 5.0 | 5.0 | 0.00 | 0.18 | 0.18 | 87 | 1015.2 |
| 20260501213303 | 44 | 338 | 5.0 | 5.0 | 0.00 | 0.18 | 0.18 | 86 | 1014.9 |
| 20260501212803 | 45 | 293 | 5.0 | 5.0 | 0.00 | 0.18 | 0.18 | 85 | 1014.9 |
| 20260501212305 | 45 | 315 | 4.0 | 5.0 | 0.00 | 0.18 | 0.18 | 83 | 1014.5 |
| 20260501211803 | 46 | 293 | 5.0 | 5.0 | 0.00 | 0.18 | 0.18 | 81 | 1014.5 |
| 20260501211303 | 46 | 293 | 4.0 | 4.0 | 0.00 | 0.18 | 0.18 | 79 | 1014.2 |
| 20260501210803 | 46 | 293 | 4.0 | 4.0 | 0.00 | 0.18 | 0.18 | 79 | 1014.2 |
| 20260501210303 | 46 | 293 | 5.0 | 6.0 | 0.00 | 0.18 | 0.18 | 77 | 1014.2 |
| 20260501205803 | 46 | 338 | 3.0 | 4.0 | 0.00 | 0.18 | 0.18 | 80 | 1014.2 |
| 20260501205305 | 46 | 248 | 4.0 | 4.0 | 0.00 | 0.18 | 0.18 | 81 | 1014.2 |
| 20260501204803 | 46 | 338 | 5.0 | 5.0 | 0.00 | 0.18 | 0.18 | 83 | 1014.2 |
| 20260501204303 | 46 | 270 | 5.0 | 5.0 | 0.00 | 0.18 | 0.18 | 80 | 1014.2 |
| 20260501203803 | 46 | 315 | 6.0 | 7.0 | 0.00 | 0.18 | 0.18 | 79 | 1014.2 |
| 20260501203303 | 46 | 203 | 6.0 | 6.0 | 0.00 | 0.18 | 0.18 | 79 | 1014.2 |
| 20260501202803 | 46 | 293 | 2.0 | 2.0 | 0.00 | 0.18 | 0.18 | 83 | 1014.2 |
| 20260501202306 | 45 | 315 | 4.0 | 5.0 | 0.00 | 0.18 | 0.18 | 82 | 1014.2 |
| 20260501201803 | 46 | 225 | 5.0 | 6.0 | 0.00 | 0.18 | 0.18 | 82 | 1014.2 |
| 20260501201303 | 46 | 293 | 5.0 | 6.0 | 0.00 | 0.18 | 0.18 | 81 | 1013.8 |
| 20260501200803 | 46 | 225 | 2.0 | 5.0 | 0.00 | 0.18 | 0.18 | 82 | 1013.8 |
| 20260501200303 | 47 | 293 | 5.0 | 5.0 | 0.00 | 0.18 | 0.18 | 80 | 1013.8 |
| 20260501195803 | 47 | 293 | 4.0 | 4.0 | 0.00 | 0.18 | 0.18 | 80 | 1013.8 |
| 20260501195305 | 47 | 293 | 6.0 | 7.0 | 0.00 | 0.18 | 0.18 | 80 | 1013.8 |